Location: Lynch Observatory
(39.9540°N, 75.1861°W)
Time: 10:33:14
(UTC-04:00)

ZACube-1 - Pass Details

Date: 27 April 2024
Orbit: 566 x 635 km, 97.7° (Epoch: 25 May)

Event Time Altitude Azimuth Distance (km) Brightness Sun altitude
Rises 04:05:40 0° 10° (N) 2,933 ? -20.7°
Reaches altitude 10° 04:07:52 10° 9° (N) 2,026 ? -20.4°
Maximum altitude 04:12:17 76° 285° (WNW) 660 ? -19.7°
Enters shadow 04:13:41 43° 208° (SSW) 899 ? -19.5°
